Voltar ao catálogo

COSMOS 2396

GLONASS

AtivoNavegaçãoMEO
NORAD 27618·PAYLOAD·🇷🇺 Russia

Lançado Dec 25, 2002 de Baikonur Cosmodrome

Loading…

Próximas Passagens (próximas 24 horas)

TLE

AtualizadoSource: Space-Track

Época: Sep 10, 2026, 11:20 UTC

1 27618U 02060B   26253.47236269 -.00000036  00000-0  00000+0 0  9998
2 27618  65.3766 312.7650 0003432 176.4153 182.4255  2.13100114184421

Acompanhe COSMOS 2396 em tempo real com AllMySat

Download on the App Store